Location: Burzi?i
(45.0869°N, 16.0577°E)
Time: 11:46:52
(UTC+00:00)

Okean O Rocket - Pass Details

Date: 29 October 2020
Orbit: 623 x 644 km, 98.2° (Epoch: 27 November)

Event Time Altitude Azimuth Distance (km) Brightness Sun altitude
Rises 17:21:33 0° 202° (SSW) 2,907 5.3 -17.1°
Reaches altitude 10° 17:24:15 10° 220° (SW) 2,001 4.7 -17.6°
Maximum altitude 17:27:26 20° 267° (W) 1,466 4.5 -18.1°
Drops below altitude 10° 17:30:39 10° 314° (NW) 2,006 4.8 -18.7°
Sets 17:33:22 0° 332° (NNW) 2,917 5.4 -19.2°
